Regional Weather Roundup
Issued by NWS

Home | Current Version | Previous Version | Graphics & Text | Print | Product List | Glossary On
Versions: 1 2 3 4 5 6 7 8 9 10 11 12 13 14 15 16 17 18 19 20 21 22 23 24 25 26 27 28 29 30 31 32 33 34 35 36 37 38 39 40 41 42 43 44 45 46 47 48 49 50
000
ASUS45 KTFX 262110
RWRMT
MONTANA REGIONAL WEATHER ROUNDUP
NATIONAL WEATHER SERVICE GREAT FALLS MT
300 PM MDT FRI AUG 26 2016

NOTE: "FAIR" INDICATES FEW OR NO CLOUDS BELOW 12000 FEET WITH NO
SIGNIFICANT WEATHER AND/OR OBSTRUCTIONS TO VISIBILITY.

MTZ001>007-043-262200-
WEST OF THE DIVIDE

CITY           SKY/WX    TMP DP  RH WIND       PRES   REMARKS
KALISPELL      SUNNY     73  41  31 E13G21    29.99F
MISSOULA       MOSUNNY   77  33  20 W6        30.00F
BUTTE          SUNNY     70  30  22 N5        30.07F
MULLAN PASS    CLOUDY    63  33  32 VRB7      30.12F
DEER LODGE       N/A     70  32  24 NE7       30.07F
EUREKA           N/A     75  41  29 S3        29.97F
HAMILTON         N/A     72  34  25 N3        30.01F
LIBBY            N/A     77  39  25 CALM      29.96F
PLAINS           N/A     80  40  24 CALM      29.98F
RONAN            N/A     74  38  27 S6        30.06F
$$

MTZ008-052>055-262200-
SOUTHWEST MONTANA

CITY           SKY/WX    TMP DP  RH WIND       PRES   REMARKS
BOZEMAN        SUNNY     71  34  25 W5        30.04F
DILLON         SUNNY     73  34  23 VRB5      30.04F
W YELLOWSTONE  CLOUDY    68  27  21 W10G16    30.10F
ENNIS          SUNNY     72  30  21 CALM      30.09F
THREE FORKS      N/A     71  71 100 E3        30.03F
TWIN BRIDGES     N/A     72  31  22 E5        30.03F
$$

MTZ009-010-012-014-046-048-049-054-262200-
EAST SLOPES AND CENTRAL MONTANA

CITY           SKY/WX    TMP DP  RH WIND       PRES   REMARKS
CUT BANK       MOSUNNY   67  37  33 S6        30.01F
GREAT FALLS    SUNNY     68  42  38 CALM      30.03F
MALMSTROM AFB  SUNNY     67  42  41 SE3       30.03F
HELENA         SUNNY     73  35  25 NE8       30.00F
CHOTEAU          N/A     68  39  34 SW7       30.04F
CONRAD           N/A     69  48  46 N1        30.05F
$$

MTZ011-013-016-021-045-047-050-051-262200-
NORTH CENTRAL MONTANA

CITY           SKY/WX    TMP DP  RH WIND       PRES   REMARKS
HAVRE          MOSUNNY   70  45  40 VRB7      30.00F
LEWISTOWN      CLOUDY    63  43  48 CALM      30.07F
N BAR RANCH    CLOUDY    63  41  45 SE5       30.09F
CHINOOK          N/A     68  45  42 W3        30.00F
$$

MTZ017>020-022>027-061-062-262200-
NORTHEAST MONTANA

CITY           SKY/WX    TMP DP  RH WIND       PRES   REMARKS
GLASGOW        PTSUNNY   70  46  42 NW21G28   29.97F
JORDAN           N/A     71  43  36 SW7       29.99F
SIDNEY         PTSUNNY   75  43  31 NW6       29.95F
WOLF POINT     MOSUNNY   74  46  36 W10       29.96F
POPLAR           N/A     72  43  35 W16G22    29.96F
SCOBEY           N/A     65  46  50 W18       29.96S
$$

MTZ028>42-056>058-262200-
SOUTHCENTRAL AND SOUTHEAST MONTANA

CITY           SKY/WX    TMP DP  RH WIND       PRES   REMARKS
BAKER          PTSUNNY   69  44  40 S10       30.01F THUNDER
BILLINGS       CLOUDY    71  36  27 SW6       30.01F
LIVINGSTON     CLOUDY    73  33  23 VRB5      30.02F
MILES CITY     CLOUDY    78  35  21 NW13      29.97F
FORSYTH          N/A     73  37  27 SW6       29.99F
LAUREL           N/A     72  36  26 E1        30.01F
ROUNDUP          N/A     69  40  34 N12       29.94F
$$

REGIONAL REPORTS...DAKOTAS

CITY           SKY/WX    TMP DP  RH WIND       PRES   REMARKS
WILLISTON      CLOUDY    78  39  24 SW12G23   29.94F
MINOT          MOSUNNY   76  45  33 S10       29.95F
DICKINSON      CLOUDY    70  44  39 S14       30.00F
CROSBY           N/A     75  41  29 SW9G18    29.96F
WATFORD CITY     N/A     73  39  29 S13       29.96F
BISMARCK       SUNNY     72  48  42 S21G30    30.05F
GRAND FORKS    CLOUDY    75  52  44 SW13      30.02F
FARGO          CLOUDY    74  49  41 SW14      30.07F
BUFFALO SD       N/A     67  51  56 VRB6      29.97F
RAPID CITY     MOSUNNY   66  55  67 S10G20    30.05F
$$

REGIONAL REPORTS...WYOMING/IDAHO/WASHINGTON

CITY           SKY/WX    TMP DP  RH WIND       PRES   REMARKS
GILLETTE       MOSUNNY   71  40  32 S5        30.02F
SHERIDAN       MOSUNNY   74  42  31 NE6       30.03F
BUFFALO WY     SUNNY     69  38  32 W6        30.08F
CODY           CLOUDY    64  43  45 E5        30.05F
YELLOWSTONE LA   N/A     55  34  45 VRB5      30.18F
IDAHO FALLS    CLOUDY    74  32  21 S15       30.03F
SALMON         MOSUNNY   75  34  22 CALM      29.98F
BOISE          SUNNY     83  36  18 NW7       29.97F
SPOKANE        PTSUNNY   83  34  17 NW8       29.95F
$$

REGIONAL REPORTS...ALBERTA

CITY           SKY/WX    TMP DP  RH WIND       PRES   REMARKS
EDMONTON       MOSUNNY   68  48  49 SW3       29.87F
CALGARY        PTSUNNY   68  43  40 VRB9      29.95F
LETHBRIDGE     MOSUNNY   72  43  35 NW6       29.97F
MEDICINE HAT   MOSUNNY   70  46  43 SW7       29.97F
WATERTON GATE    N/A     70  41  35 SW12        N/A
CARDSTON         N/A     73  41  31 S3          N/A
MILK RIVER       N/A     72  39  30 W6          N/A
ONEFOUR          N/A     66  39  37 N9          N/A
$$

REGIONAL REPORTS...SASKATCHEWAN

CITY           SKY/WX    TMP DP  RH WIND       PRES   REMARKS
SWIFT CURRENT  MOSUNNY   64  46  52 NW13G21   29.95F
REGINA         PTSUNNY   63  54  72 W16G22    29.92S
SASKATOON      PTSUNNY   68  50  52 NW16      29.91F
CYPRESS HILLS    N/A     59  43  55 NW8         N/A
VAL MARIE        N/A     66  43  42 N10G17      N/A
$$



USA.gov is the U.S. government's official web portal to all federal, state and local government web resources and services.